NDF4TP EDDH-LFML

Flight info

Callsign NDF4TP
Flight time N/A
Altitude 43000
Route WSN5G WSN N125 SILQI N872 PAM/N0495F450 N872 MEDIL DCT KOVIN/N0480F250 DCT DUCRA UM728 KETEX DCT KOTIS DCT KUKOR DCT UTUVA DCT LERGA LERGA1R
Aircraft C750/M-SBDE3FGHRWXY/S

Departure

Time 2026-05-04 08:57
Airport Hamburg Helmut Schmidt Airport (EDDH)

Arrival

Time N/A
Airport Marseille Provence Airport (LFML)
Time Latitude Longitude Altitude Speed Heading
2026-05-04 08:46 53.62749 9.99181 43 ft 0 kts 63°
2026-05-04 08:51 53.62749 9.99179 43 ft 1 kts 63°
2026-05-04 08:51 53.62738 9.99143 43 ft 4 kts 63°
2026-05-04 08:51 53.62726 9.99102 43 ft 3 kts 63°
2026-05-04 08:51 53.62715 9.99071 43 ft 4 kts 46°
2026-05-04 08:52 53.62696 9.99052 43 ft 4 kts 348°
2026-05-04 08:52 53.62674 9.99067 43 ft 2 kts 333°
2026-05-04 08:52 53.62672 9.99069 43 ft 0 kts 333°
2026-05-04 08:54 53.63051 9.99286 43 ft 12 kts 52°
2026-05-04 08:55 53.63106 9.99419 43 ft 14 kts 56°
2026-05-04 08:55 53.63175 9.99472 43 ft 9 kts 348°
2026-05-04 08:55 53.63238 9.99425 43 ft 20 kts 332°
2026-05-04 08:55 53.63672 9.99049 44 ft 118 kts 333°
2026-05-04 08:57 53.71039 9.91527 3832 ft 206 kts 293°
2026-05-04 09:01 53.62544 9.51660 13100 ft 334 kts 236°
2026-05-04 09:01 53.61192 9.48460 13835 ft 336 kts 236°
2026-05-04 09:01 53.59828 9.45243 14484 ft 339 kts 236°
2026-05-04 09:01 53.58458 9.42074 15170 ft 340 kts 235°
2026-05-04 09:02 53.57059 9.38847 15854 ft 342 kts 235°
2026-05-04 09:02 53.55663 9.35603 16559 ft 343 kts 235°
2026-05-04 09:02 53.54256 9.32332 17199 ft 348 kts 235°
2026-05-04 09:02 53.52829 9.29028 17908 ft 350 kts 235°
2026-05-04 09:03 53.51390 9.25705 18617 ft 353 kts 235°
2026-05-04 09:03 53.49944 9.22366 19307 ft 354 kts 235°
2026-05-04 09:03 53.48493 9.19020 20008 ft 355 kts 235°
2026-05-04 09:03 53.47035 9.15663 20709 ft 357 kts 235°
2026-05-04 09:04 53.45564 9.12277 21402 ft 359 kts 235°
2026-05-04 09:04 53.44087 9.08886 22074 ft 361 kts 235°
2026-05-04 09:04 53.42599 9.05477 22752 ft 363 kts 235°
2026-05-04 09:04 53.41105 9.02054 23425 ft 365 kts 235°
2026-05-04 09:05 53.39598 8.98606 23929 ft 369 kts 234°
2026-05-04 09:05 53.38070 8.95119 24388 ft 373 kts 234°
2026-05-04 09:05 53.37051 8.92796 24735 ft 375 kts 234°
2026-05-04 09:05 53.35549 8.89217 25213 ft 378 kts 238°
2026-05-04 09:06 53.34309 8.85333 25735 ft 380 kts 245°
2026-05-04 09:07 53.27701 8.55613 29325 ft 400 kts 250°
2026-05-04 09:08 53.26738 8.51237 29826 ft 403 kts 250°
2026-05-04 09:08 53.25854 8.46786 30234 ft 406 kts 252°
2026-05-04 09:08 53.25016 8.42257 30610 ft 410 kts 252°
2026-05-04 09:08 53.24153 8.37704 30976 ft 414 kts 252°
2026-05-04 09:09 53.23280 8.33129 31561 ft 413 kts 251°
2026-05-04 09:09 53.22417 8.28557 32079 ft 413 kts 251°
2026-05-04 09:09 53.21552 8.23980 32576 ft 414 kts 251°
2026-05-04 09:09 53.20678 8.19392 33121 ft 415 kts 251°
2026-05-04 09:10 53.19798 8.14800 33591 ft 417 kts 251°
2026-05-04 09:10 53.18917 8.10186 34075 ft 418 kts 251°
2026-05-04 09:10 53.18044 8.05556 34513 ft 419 kts 251°
2026-05-04 09:10 53.17180 8.00918 34978 ft 419 kts 252°
2026-05-04 09:11 53.16316 7.96336 35428 ft 420 kts 252°
2026-05-04 09:11 53.15433 7.91707 35904 ft 420 kts 252°
2026-05-04 09:11 53.14549 7.87060 36383 ft 421 kts 252°
2026-05-04 09:11 53.13667 7.82419 36864 ft 421 kts 252°
2026-05-04 09:12 53.12778 7.77762 37359 ft 421 kts 252°
2026-05-04 09:12 53.11888 7.73116 37854 ft 422 kts 252°
2026-05-04 09:14 53.05564 7.40442 40814 ft 427 kts 252°
2026-05-04 09:14 53.04644 7.35741 41202 ft 429 kts 252°
2026-05-04 09:14 53.03718 7.31026 41583 ft 430 kts 252°
2026-05-04 09:14 53.02789 7.26299 41942 ft 431 kts 252°
2026-05-04 09:15 53.01961 7.22093 42298 ft 431 kts 252°